When you browse on this site, cookies collect data to enhance your experience and personalize the content and advertising you see.
Visit our Privacy Policy to learn more. By continuing to use the site, you agree to this use of cookies and data.
  • In France
  • List of Countries
  • For 7 days
  • Water Temperature
  • Satellite Maps
  • Weather Map
  • Weather Widgets
  • user-avatar
    Login

    Hourly Weather Kalgoorlie

    Today, 12 December, Wednesday

    Time Temperature Precipitation Wind Pressure Humidity
    00:00 +26°C° 0 mm 6 mps 726 mmHg 59%
    01:00 +24°C° 0 mm 6 mps 726 mmHg 61%
    02:00 +23°C° 0 mm 6 mps 726 mmHg 63%
    03:00 +22°C° 0 mm 6 mps 727 mmHg 62%
    04:00 +21°C° 0 mm 6 mps 727 mmHg 62%
    05:00 +20°C° 0 mm 6 mps 727 mmHg 62%
    06:00 +21°C° 0 mm 6 mps 728 mmHg 57%
    07:00 +22°C° 0 mm 7 mps 728 mmHg 53%
    08:00 +22°C° 0 mm 7 mps 729 mmHg 48%
    09:00 +24°C° 0 mm 6 mps 729 mmHg 45%
    10:00 +26°C° 0 mm 6 mps 729 mmHg 43%
    11:00 +27°C° 0 mm 6 mps 729 mmHg 40%
    12:00 +28°C° 0 mm 6 mps 729 mmHg 36%
    13:00 +29°C° 0 mm 6 mps 729 mmHg 33%
    14:00 +32°C° 0 mm 5 mps 729 mmHg 30%
    15:00 +30°C° 0 mm 6 mps 729 mmHg 30%
    16:00 +30°C° 0 mm 6 mps 729 mmHg 31%
    17:00 +30°C° 0 mm 7 mps 729 mmHg 32%
    18:00 +28°C° 0 mm 8 mps 730 mmHg 36%
    19:00 +27°C° 0 mm 8 mps 730 mmHg 41%
    20:00 +24°C° 0 mm 9 mps 730 mmHg 46%
    21:00 +23°C° 0 mm 9 mps 731 mmHg 49%
    22:00 +22°C° 0 mm 9 mps 732 mmHg 52%
    23:00 +19°C° 0 mm 9 mps 732 mmHg 55%

    Tomorrow, 13 December, Thursday

    Time Temperature Precipitation Wind Pressure Humidity
    00:00 +18°C° 0 mm 9 mps 732 mmHg 58%
    01:00 +17°C° 0 mm 8 mps 732 mmHg 62%
    02:00 +16°C° 0 mm 8 mps 732 mmHg 65%
    03:00 +16°C° 0 mm 8 mps 732 mmHg 65%
    04:00 +15°C° 0 mm 7 mps 732 mmHg 64%
    05:00 +14°C° 0 mm 7 mps 732 mmHg 64%
    06:00 +16°C° 0 mm 7 mps 732 mmHg 59%
    07:00 +17°C° 0 mm 7 mps 732 mmHg 53%
    08:00 +18°C° 0 mm 7 mps 732 mmHg 48%
    09:00 +21°C° 0 mm 7 mps 732 mmHg 40%
    10:00 +23°C° 0 mm 7 mps 732 mmHg 32%
    11:00 +26°C° 0 mm 7 mps 732 mmHg 24%
    12:00 +28°C° 0 mm 7 mps 732 mmHg 21%
    13:00 +29°C° 0 mm 7 mps 731 mmHg 18%
    14:00 +30°C° 0 mm 7 mps 731 mmHg 16%
    15:00 +30°C° 0 mm 7 mps 731 mmHg 16%
    16:00 +30°C° 0 mm 7 mps 730 mmHg 16%
    17:00 +30°C° 0 mm 7 mps 730 mmHg 16%
    18:00 +29°C° 0 mm 7 mps 730 mmHg 18%
    19:00 +28°C° 0 mm 6 mps 731 mmHg 21%
    20:00 +27°C° 0 mm 6 mps 731 mmHg 23%
    21:00 +26°C° 0 mm 6 mps 731 mmHg 25%
    22:00 +24°C° 0 mm 6 mps 731 mmHg 28%
    23:00 +23°C° 0 mm 7 mps 732 mmHg 30%

    Day after tomorrow, 14 December, Friday

    Time Temperature Precipitation Wind Pressure Humidity
    00:00 +22°C° 0 mm 7 mps 731 mmHg 34%
    01:00 +21°C° 0 mm 7 mps 730 mmHg 38%
    02:00 +20°C° 0 mm 7 mps 730 mmHg 43%
    03:00 +20°C° 0 mm 7 mps 730 mmHg 46%
    04:00 +18°C° 0 mm 7 mps 730 mmHg 49%
    05:00 +17°C° 0 mm 7 mps 730 mmHg 53%
    06:00 +18°C° 0 mm 7 mps 730 mmHg 49%
    07:00 +21°C° 0 mm 7 mps 730 mmHg 46%
    08:00 +22°C° 0 mm 8 mps 730 mmHg 43%
    09:00 +24°C° 0 mm 7 mps 730 mmHg 36%
    10:00 +27°C° 0 mm 7 mps 729 mmHg 30%
    11:00 +29°C° 0 mm 7 mps 729 mmHg 24%
    12:00 +30°C° 0 mm 7 mps 728 mmHg 21%
    13:00 +33°C° 0 mm 7 mps 728 mmHg 18%
    14:00 +34°C° 0 mm 6 mps 727 mmHg 16%
    15:00 +34°C° 0 mm 6 mps 727 mmHg 15%
    16:00 +34°C° 0 mm 6 mps 726 mmHg 14%
    17:00 +34°C° 0 mm 6 mps 726 mmHg 14%
    18:00 +33°C° 0 mm 6 mps 726 mmHg 15%
    19:00 +32°C° 0 mm 6 mps 726 mmHg 16%
    20:00 +30°C° 0 mm 6 mps 727 mmHg 18%
    21:00 +29°C° 0 mm 6 mps 727 mmHg 19%
    22:00 +28°C° 0 mm 7 mps 727 mmHg 20%
    23:00 +27°C° 0 mm 8 mps 727 mmHg 22%

    15 December, Saturday

    Time Temperature Precipitation Wind Pressure Humidity
    00:00 +26°C° 0 mm 8 mps 726 mmHg 23%
    01:00 +26°C° 0 mm 8 mps 725 mmHg 25%
    02:00 +24°C° 0 mm 8 mps 725 mmHg 26%
    03:00 +23°C° 0 mm 8 mps 725 mmHg 29%
    04:00 +23°C° 0 mm 8 mps 725 mmHg 31%
    05:00 +22°C° 0 mm 7 mps 725 mmHg 33%
    06:00 +23°C° 0 mm 8 mps 725 mmHg 31%
    07:00 +24°C° 0 mm 8 mps 725 mmHg 29%
    08:00 +27°C° 0 mm 8 mps 726 mmHg 27%
    09:00 +29°C° 0 mm 8 mps 725 mmHg 23%
    10:00 +32°C° 0 mm 8 mps 725 mmHg 20%
    11:00 +34°C° 0 mm 8 mps 725 mmHg 16%
    12:00 +35°C° 0 mm 8 mps 724 mmHg 15%
    13:00 +38°C° 0 mm 8 mps 723 mmHg 13%
    14:00 +39°C° 0 mm 8 mps 721 mmHg 12%
    15:00 +39°C° 0 mm 8 mps 721 mmHg 11%
    16:00 +40°C° 0 mm 8 mps 720 mmHg 11%
    17:00 +40°C° 0 mm 8 mps 720 mmHg 11%
    18:00 +39°C° 0 mm 8 mps 719 mmHg 12%
    19:00 +38°C° 0 mm 9 mps 719 mmHg 13%
    20:00 +37°C° 0 mm 10 mps 719 mmHg 14%
    21:00 +34°C° 0 mm 9 mps 719 mmHg 15%
    22:00 +33°C° 0 mm 8 mps 719 mmHg 15%
    23:00 +32°C° 0 mm 6 mps 720 mmHg 16%

    16 December, Sunday

    Time Temperature Precipitation Wind Pressure Humidity
    00:00 +30°C° 0 mm 6 mps 720 mmHg 18%
    01:00 +29°C° 0 mm 6 mps 720 mmHg 20%
    02:00 +28°C° 0 mm 6 mps 720 mmHg 22%
    03:00 +28°C° 0 mm 5 mps 720 mmHg 26%
    04:00 +27°C° 0 mm 4 mps 720 mmHg 30%
    05:00 +26°C° 0 mm 4 mps 720 mmHg 33%
    06:00 +26°C° 0 mm 5 mps 720 mmHg 36%
    07:00 +27°C° 0 mm 5 mps 721 mmHg 39%
    08:00 +28°C° 0 mm 6 mps 721 mmHg 42%
    09:00 +29°C° 0 mm 6 mps 721 mmHg 37%
    10:00 +32°C° 0 mm 6 mps 720 mmHg 32%
    11:00 +33°C° 0 mm 7 mps 720 mmHg 28%
    12:00 +34°C° 0 mm 7 mps 720 mmHg 25%
    13:00 +35°C° 0 mm 7 mps 719 mmHg 21%
    14:00 +36°C° 0 mm 7 mps 719 mmHg 18%
    15:00 +37°C° 0 mm 8 mps 719 mmHg 18%
    16:00 +37°C° 0 mm 8 mps 719 mmHg 17%
    17:00 +35°C° 0 mm 9 mps 719 mmHg 17%
    18:00 +34°C° 0 mm 8 mps 720 mmHg 19%
    19:00 +32°C° 0 mm 8 mps 720 mmHg 21%
    20:00 +31°C° 0 mm 8 mps 721 mmHg 23%
    21:00 +28°C° 0 mm 8 mps 721 mmHg 29%
    22:00 +27°C° 0 mm 8 mps 721 mmHg 34%
    23:00 +26°C° 0 mm 8 mps 722 mmHg 40%

    17 December, Monday

    Time Temperature Precipitation Wind Pressure Humidity
    00:00 +24°C° 0 mm 7 mps 722 mmHg 43%
    01:00 +23°C° 0 mm 7 mps 722 mmHg 47%
    02:00 +22°C° 0 mm 6 mps 721 mmHg 50%
    03:00 +21°C° 0 mm 6 mps 722 mmHg 53%
    04:00 +21°C° 0 mm 5 mps 722 mmHg 55%
    05:00 +20°C° 0 mm 5 mps 722 mmHg 58%
    06:00 +21°C° 0 mm 5 mps 723 mmHg 57%
    07:00 +21°C° 0 mm 5 mps 723 mmHg 56%
    08:00 +22°C° 0 mm 5 mps 724 mmHg 54%
    09:00 +23°C° 0 mm 5 mps 724 mmHg 50%
    10:00 +23°C° 0 mm 5 mps 723 mmHg 45%
    11:00 +25°C° 0 mm 5 mps 723 mmHg 41%
    12:00 +26°C° 0 mm 6 mps 723 mmHg 36%
    13:00 +27°C° 0 mm 6 mps 723 mmHg 31%
    14:00 +28°C° 0 mm 6 mps 723 mmHg 27%
    15:00 +28°C° 0 mm 7 mps 723 mmHg 27%
    16:00 +29°C° 0 mm 7 mps 723 mmHg 28%
    17:00 +29°C° 0 mm 8 mps 723 mmHg 29%
    18:00 +28°C° 0 mm 7 mps 724 mmHg 32%
    19:00 +27°C° 0 mm 7 mps 724 mmHg 35%
    20:00 +26°C° 0 mm 6 mps 724 mmHg 39%
    21:00 +26°C° 0 mm 6 mps 725 mmHg 42%
    22:00 +24°C° 0 mm 6 mps 725 mmHg 44%
    23:00 +24°C° 0 mm 6 mps 725 mmHg 47%
    Show more